1488272400.22,8067,8.06,72238.0,4.35,-31.67,-32.51,0,*40
1488272401.48,8068,8.13,72234.5,4.39,-30.73,-31.51,0,*44
1488272402.72,8069,8.13,72206.3,4.39,-31.51,-32.57,0,*41
1488272403.93,8070,8.06,72218.0,4.39,-31.79,-32.57,0,*43
1488272405.15,8071,8.13,72242.8,4.35,-32.13,-33.03,0,*41
1488272406.39,8072,8.13,72234.8,4.35,-32.23,-33.09,0,*4B
1488272407.66,8073,8.13,72232.8,4.35,-32.75,-33.77,0,*40
1488272408.88,8074,8.06,72236.3,4.35,-31.79,-32.69,0,*46
1488272410.13,8075,8.13,72250.0,4.35,-32.69,-33.49,0,*46
1488272411.39,8076,8.13,72228.3,4.33,-31.91,-32.75,0,*49
1488272412.63,8077,8.13,72236.5,4.33,-32.19,-32.97,0,*47
1488272413.88,8078,8.13,72226.3,4.31,-31.67,-32.45,0,*4F
1488272415.11,8079,8.06,72236.0,4.33,-32.01,-32.79,0,*40
1488272416.38,8080,8.06,72236.5,4.31,-31.91,-32.63,0,*45
1488272417.6,8081,8.06,72250.5,4.33,-31.73,-32.57,0,*4D
1488272418.85,8082,8.06,72234.5,4.31,-31.85,-32.57,0,*45
1488272420.1,8083,8.06,72248.3,4.33,-31.57,-32.19,0,*43
1488272421.37,8084,8.06,72264.3,4.31,-31.39,-32.19,0,*4E
1488272422.62,8085,8.06,72272.5,4.31,-32.63,-33.55,0,*4A
1488272423.86,8086,8.13,72248.8,4.31,-32.97,-33.83,0,*49
1488272425.06,8087,8.06,72202.0,4.29,-33.21,-33.95,0,*4A
1488272426.28,8088,8.06,72180.5,4.27,-32.85,-33.67,0,*49
1488272427.49,8089,8.06,72196.3,4.27,-33.77,-34.71,0,*44
1488272428.7,8090,8.13,72214.8,4.25,-33.21,-33.95,0,*40
1488272429.92,8091,8.06,72250.8,4.23,-32.39,-33.27,0,*46
1488272431.14,8092,8.06,72278.0,4.25,-32.57,-33.67,0,*4F
1488272432.39,8093,8.06,72280.3,4.23,-32.79,-33.73,0,*41
1488272433.63,8094,8.06,72252.3,4.21,-32.07,-32.57,0,*4A
1488272434.84,8095,8.06,72258.0,4.21,-32.35,-33.15,0,*4D
1488272436.09,8096,8.06,72268.8,4.21,-31.85,-32.35,0,*45
1488272437.34,8097,8.06,72268.5,4.21,-32.01,-32.75,0,*4F
1488272438.56,8098,8.06,72266.0,4.19,-32.45,-33.21,0,*4B
1488272439.77,8099,8.06,72186.5,4.19,-32.13,-32.97,0,*45
1488272441.0,8100,8.13,72232.3,4.19,-31.73,-32.39,0,*45
1488272442.25,8101,8.06,72266.5,4.21,-32.39,-33.27,0,*4C
1488272443.46,8102,8.06,72224.0,4.19,-31.79,-32.63,0,*42
1488272444.71,8103,8.06,72244.0,4.19,-31.73,-32.45,0,*4D
1488272445.92,8104,8.13,72238.0,4.19,-31.39,-32.13,0,*47
1488272447.19,8105,8.06,72258.0,4.21,-31.39,-32.07,0,*48
1488272448.44,8106,8.06,72222.3,4.19,-31.23,-31.91,0,*47
1488272449.66,8107,8.06,72244.5,4.19,-31.57,-32.23,0,*4F
1488272450.88,8108,8.06,72228.5,4.19,-31.57,-32.23,0,*40
1488272452.1,8109,8.13,72214.5,4.19,-31.33,-32.07,0,*45
1488272453.29,8110,8.06,72246.0,4.19,-32.13,-33.03,0,*49
1488272454.53,8111,8.06,72238.5,4.19,-31.57,-32.29,0,*42
1488272455.81,8112,8.06,72222.3,4.21,-31.23,-31.91,0,*49
1488272457.0,8113,8.13,72216.5,4.19,-31.01,-31.79,0,*45
1488272458.22,8114,8.06,72234.5,4.19,-30.83,-31.61,0,*40
1488272459.44,8115,8.06,72214.8,4.19,-31.57,-32.39,0,*47
1488272460.68,8116,8.06,72218.0,4.19,-32.07,-32.97,0,*46
1488272461.88,8117,8.06,72230.0,4.19,-32.51,-33.37,0,*4F
1488272463.12,8118,8.06,72236.5,4.17,-32.13,-32.97,0,*43
1488272464.38,8119,8.06,72250.0,4.17,-31.73,-32.69,0,*46
1488272465.65,8120,8.06,72286.8,4.13,-31.51,-32.19,0,*4F
1488272466.9,8121,8.06,72294.8,4.17,-31.73,-32.39,0,*48
1488272468.17,8122,8.06,72286.8,4.13,-31.61,-32.45,0,*47
1488272469.43,8123,8.06,72264.5,4.13,-32.01,-32.85,0,*4F
1488272470.66,8124,8.06,72252.0,4.13,-31.79,-32.51,0,*4D
1488272471.91,8125,8.06,72236.3,4.17,-31.29,-31.95,0,*46
1488272473.12,8126,8.06,72252.5,4.17,-31.05,-31.79,0,*49
1488272474.38,8127,8.06,72262.3,4.13,-31.61,-32.69,0,*4C
1488272475.6,8128,8.06,72244.8,4.17,-31.79,-32.69,0,*4E
1488272476.82,8129,8.13,72238.5,4.13,-32.13,-32.91,0,*43
1488272478.09,8130,8.06,72228.5,4.13,-31.51,-32.29,0,*4D
1488272479.31,8131,8.06,72234.0,4.13,-32.35,-33.37,0,*43
1488272480.58,8132,8.06,72228.3,4.13,-31.61,-32.45,0,*46
1488272481.82,8133,8.06,72230.5,4.13,-32.13,-33.09,0,*48
1488272483.05,8134,8.06,72236.5,4.13,-32.01,-32.91,0,*4C
1488272484.3,8135,8.06,72248.8,4.13,-31.11,-31.79,0,*4A
1488272485.51,8136,8.06,72248.0,4.13,-30.45,-31.29,0,*4C
1488272486.76,8137,8.06,72252.3,4.17,-30.89,-31.79,0,*4C
1488272488.01,8138,8.13,72252.5,4.17,-30.89,-31.79,0,*43
1488272489.26,8139,8.06,72256.8,4.17,-31.23,-32.13,0,*4C
1488272490.52,8140,8.06,72256.8,4.17,-30.89,-31.73,0,*46
1488272491.77,8141,8.06,72270.3,4.17,-30.17,-31.05,0,*41
1488272493.01,8142,8.06,72228.5,4.19,-30.39,-31.23,0,*44
1488272494.29,8143,8.06,72228.8,4.21,-32.19,-33.27,0,*48
1488272495.5,8144,8.06,72218.3,4.19,-32.97,-33.95,0,*4B
1488272496.78,8145,8.06,72178.8,4.17,-31.95,-32.85,0,*45
1488272498.05,8146,8.06,72200.3,4.17,-31.73,-32.63,0,*46
1488272499.31,8147,8.06,72206.5,4.17,-31.73,-32.69,0,*4D
1488272500.53,8148,8.06,72198.0,4.17,-31.45,-32.23,0,*49
1488272501.8,8149,8.06,72224.8,4.17,-31.57,-32.29,0,*41
1488272503.02,8150,8.06,72234.0,4.13,-31.29,-32.01,0,*4E
1488272504.27,8151,8.06,72238.8,4.17,-31.17,-32.07,0,*40
1488272505.52,8152,8.06,72230.0,4.17,-31.39,-32.13,0,*4A
1488272506.7,8153,8.06,72228.8,4.19,-31.05,-31.79,0,*45
1488272507.95,8154,8.06,72242.3,4.19,-31.95,-32.85,0,*4B
1488272509.2,8155,8.06,72232.0,4.17,-32.07,-33.03,0,*43
1488272510.46,8156,8.06,72246.0,4.17,-32.69,-33.73,0,*4F
1488272511.73,8157,8.06,72256.8,4.13,-32.45,-33.43,0,*47
1488272512.95,8158,8.06,72286.5,4.13,-32.13,-33.21,0,*4F
1488272514.19,8159,8.06,72282.8,4.13,-32.51,-33.61,0,*4C
1488272515.43,8160,8.06,72284.5,4.17,-32.29,-33.21,0,*49
1488272516.65,8161,8.06,72282.5,4.13,-32.35,-33.37,0,*46
1488272517.87,8162,8.06,72288.3,4.11,-31.57,-32.51,0,*41
1488272519.1,8163,8.06,72286.0,4.11,-31.29,-32.19,0,*45
1488272520.29,8164,8.06,72280.0,4.11,-31.17,-32.01,0,*46
1488272521.53,8165,8.06,72280.3,4.13,-30.95,-31.67,0,*4D
1488272522.78,8166,8.06,72294.0,4.13,-30.89,-31.67,0,*43
1488272524.02,8167,8.06,72300.3,4.13,-31.45,-32.29,0,*4A
1488272525.27,8168,8.06,72288.3,4.13,-31.51,-32.51,0,*4F
1488272526.54,8169,8.06,72278.8,4.17,-30.73,-31.61,0,*4B
1488272527.79,8170,8.06,72264.0,4.13,-31.23,-32.01,0,*46
1488272529.04,8171,8.06,72256.8,4.17,-30.67,-31.39,0,*4A
1488272530.28,8172,8.06,72252.3,4.19,-30.39,-31.23,0,*47
1488272531.52,8173,8.06,72256.0,4.21,-30.67,-31.57,0,*45
1488272532.77,8174,8.06,72250.0,4.21,-31.17,-31.85,0,*4B
1488272534.01,8175,8.06,72200.3,4.21,-30.83,-31.57,0,*49
1488272535.28,8176,8.06,72202.3,4.21,-31.85,-32.79,0,*42
1488272536.56,8177,8.06,72142.3,4.21,-31.85,-32.63,0,*48
1488272537.8,8178,8.06,72188.3,4.21,-32.23,-33.09,0,*45
1488272539.02,8179,8.06,72172.0,4.19,-31.91,-32.69,0,*42
1488272540.22,8180,8.06,72100.8,4.19,-30.67,-31.29,0,*4B
1488272541.46,8181,8.06,72080.0,4.21,-30.67,-31.57,0,*48
1488272542.74,8182,8.06,72054.5,4.21,-31.23,-32.19,0,*43
1488272544.01,8183,8.06,72056.8,4.21,-33.09,-34.01,0,*47
1488272545.22,8184,8.06,72058.5,4.19,-32.63,-33.55,0,*40
1488272546.5,8185,8.06,72082.3,4.21,-32.75,-33.73,0,*49
1488272547.75,8186,8.06,72126.3,4.19,-32.07,-32.85,0,*4C
1488272548.99,8187,8.06,72130.3,4.17,-32.39,-33.31,0,*40
1488272550.27,8188,8.06,72152.0,4.17,-31.73,-32.45,0,*40
1488272551.49,8189,8.06,72188.5,4.17,-31.01,-31.79,0,*48
1488272552.74,8190,8.06,72196.8,4.17,-31.57,-32.39,0,*44
1488272553.96,8191,8.06,72194.0,4.19,-31.45,-32.29,0,*49
1488272555.15,8192,8.06,72202.5,4.19,-31.29,-32.23,0,*4A
1488272556.36,8193,8.06,72192.0,4.19,-31.01,-31.73,0,*47
1488272557.55,8194,8.06,72200.3,4.19,-30.45,-31.17,0,*43
1488272558.77,8195,8.06,72190.8,4.21,-30.27,-31.17,0,*4D
1488272560.05,8196,8.06,72190.8,4.21,-30.17,-31.11,0,*4B
1488272561.24,8197,8.06,72186.8,4.23,-30.27,-31.01,0,*4A
1488272562.47,8198,8.06,72172.3,4.25,-30.55,-31.33,0,*47
1488272563.73,8199,8.06,72154.0,4.25,-30.39,-31.11,0,*4C
1488272564.98,8200,8.06,72196.0,4.27,-30.01,-30.77,0,*47
1488272566.16,8201,8.06,72162.3,4.27,-30.45,-31.33,0,*47
1488272567.38,8202,8.06,72166.3,4.27,-31.29,-32.19,0,*44
1488272568.62,8203,8.06,72202.8,4.25,-31.05,-31.85,0,*4F
1488272569.85,8204,8.06,72194.5,4.27,-30.61,-31.51,0,*40
1488272571.06,8205,8.06,72144.5,4.27,-30.39,-31.05,0,*4D
1488272572.29,8206,8.06,72186.5,4.29,-30.51,-31.45,0,*4A
1488272573.5,8207,8.06,72228.5,4.29,-31.01,-31.73,0,*4A
1488272574.7,8208,8.06,72204.5,4.29,-31.17,-32.01,0,*44
1488272575.88,8209,8.06,72224.8,4.27,-31.33,-32.13,0,*4E
1488272577.08,8210,8.06,72182.5,4.29,-32.23,-33.15,0,*4D
1488272578.29,8211,8.06,72230.8,4.29,-32.23,-32.97,0,*47
1488272579.51,8212,8.06,72286.3,4.27,-31.61,-32.35,0,*47
1488272580.73,8213,8.06,72198.3,4.27,-31.33,-32.19,0,*4F
1488272581.98,8214,8.06,72218.3,4.29,-31.61,-32.45,0,*48
1488272583.22,8215,8.06,72226.0,4.27,-32.19,-33.09,0,*42
1488272584.4,8216,8.06,72266.8,4.27,-31.67,-32.57,0,*41
1488272585.62,8217,8.06,72260.8,4.27,-31.17,-31.95,0,*4A
1488272586.83,8218,8.06,72272.5,4.27,-31.61,-32.57,0,*49
1488272588.07,8219,8.06,72250.5,4.29,-31.51,-32.29,0,*4C
1488272589.29,8220,8.06,72260.0,4.25,-31.67,-32.51,0,*40
1488272590.53,8221,8.06,72294.0,4.25,-31.29,-31.95,0,*40
1488272591.8,8222,8.06,72228.3,4.25,-30.95,-31.61,0,*4E
1488272592.99,8223,8.06,72200.3,4.27,-31.33,-32.13,0,*46
1488272594.22,8224,8.0,72184.5,4.27,-31.51,-32.29,0,*4C
1488272595.42,8225,8.06,72184.3,4.27,-31.79,-32.69,0,*43
1488272596.61,8226,8.06,72184.5,4.27,-31.67,-32.51,0,*44
1488272597.8,8227,8.06,72166.5,4.27,-31.33,-32.13,0,*42
1488272599.05,8228,8.06,72194.3,4.29,-31.23,-31.95,0,*4F
1488272600.27,8229,8.06,72236.5,4.27,-32.13,-32.75,0,*4D
1488272601.49,8230,8.06,72228.8,4.27,-31.61,-32.35,0,*47
1488272602.71,8231,8.06,72222.5,4.23,-31.45,-32.19,0,*4A
1488272603.91,8232,8.06,72260.8,4.23,-31.67,-32.39,0,*4B
1488272605.12,8233,8.06,72248.5,4.25,-31.33,-32.13,0,*45
1488272606.39,8234,8.06,72252.5,4.25,-31.61,-32.29,0,*4C
1488272607.62,8235,8.06,72230.3,4.25,-31.51,-32.13,0,*47
1488272608.86,8236,8.06,72166.3,4.25,-31.67,-32.29,0,*48
1488272610.11,8237,8.06,72172.8,4.25,-30.23,-30.77,0,*41
1488272611.35,8238,8.06,72170.5,4.25,-31.17,-31.95,0,*45
1488272612.57,8239,8.06,72160.8,4.25,-31.45,-32.01,0,*4D
1488272613.78,8240,8.06,72136.5,4.25,-32.13,-33.03,0,*40
1488272615.02,8241,8.06,72122.8,4.25,-33.27,-34.13,0,*41
1488272616.24,8242,8.06,72160.8,4.23,-33.73,-34.59,0,*4B
1488272617.46,8243,8.06,72162.3,4.23,-32.45,-33.15,0,*41
1488272618.68,8244,8.06,72186.8,4.23,-31.23,-32.01,0,*41
1488272619.87,8245,8.0,72192.8,4.23,-31.67,-32.35,0,*47
1488272621.12,8246,8.06,72182.0,4.23,-31.57,-32.19,0,*49
1488272622.33,8247,8.06,72200.0,4.21,-32.23,-32.91,0,*4A
1488272623.52,8248,8.06,72206.8,4.23,-31.67,-32.23,0,*4D
1488272624.74,8249,8.06,72162.0,4.23,-30.83,-31.39,0,*4F
1488272625.98,8250,8.06,72190.0,4.25,-31.67,-32.29,0,*48
1488272627.22,8251,8.06,72200.5,4.25,-32.13,-32.85,0,*4F
1488272628.47,8252,8.06,72210.0,4.23,-32.79,-33.49,0,*47
1488272629.72,8253,8.0,72200.5,4.23,-32.63,-33.43,0,*47
1488272630.94,8254,8.06,72204.5,4.23,-32.57,-33.31,0,*42
1488272632.12,8255,8.06,72212.3,4.19,-33.21,-33.95,0,*44
1488272633.34,8256,8.06,72228.8,4.19,-33.31,-34.13,0,*4F
1488272634.56,8257,8.06,72244.0,4.19,-32.45,-33.15,0,*4D
1488272635.78,8258,8.06,72246.5,4.17,-32.23,-33.03,0,*4B
1488272636.99,8259,8.06,72250.0,4.19,-31.05,-31.61,0,*45
1488272638.21,8260,8.06,72248.0,4.19,-30.83,-31.39,0,*4D
1488272639.41,8261,8.06,72256.0,4.19,-30.83,-31.45,0,*47
1488272640.67,8262,8.06,72264.3,4.23,-30.17,-30.77,0,*40
1488272641.9,8263,8.06,72272.8,4.23,-30.27,-30.77,0,*42
1488272643.09,8264,8.06,72248.0,4.23,-30.33,-31.01,0,*40
1488272644.35,8265,8.06,72226.3,4.25,-30.77,-31.57,0,*44
1488272645.57,8266,8.06,72242.3,4.25,-31.45,-32.01,0,*47
1488272646.81,8267,8.06,72248.8,4.25,-30.73,-31.29,0,*4B
1488272648.05,8268,8.06,72258.5,4.25,-30.45,-31.11,0,*4A
1488272649.23,8269,8.06,72254.3,4.27,-30.45,-31.05,0,*4C
1488272650.47,8270,8.06,72270.5,4.29,-30.01,-30.39,0,*44
1488272651.71,8271,8.06,72292.8,4.31,-29.57,-30.27,0,*48
1488272652.96,8272,8.0,72306.5,4.31,-30.67,-31.23,0,*45
1488272654.15,8273,8.06,72236.0,4.33,-31.67,-32.23,0,*44
1488272655.4,8274,8.06,72240.8,4.31,-30.61,-31.01,0,*45
1488272656.62,8275,8.06,72230.3,4.33,-31.01,-31.39,0,*4A
1488272657.86,8276,8.0,72256.0,4.31,-31.05,-31.57,0,*47
1488272659.06,8277,8.06,72258.3,4.33,-32.23,-32.91,0,*4A
1488272660.31,8278,8.06,72266.8,4.31,-32.57,-33.27,0,*48
1488272661.56,8279,8.06,72254.8,4.33,-31.51,-32.07,0,*4D
1488272662.81,8280,8.0,72210.3,4.33,-31.23,-31.73,0,*4E
1488272664.02,8281,8.06,72230.5,4.33,-31.01,-31.57,0,*49
1488272665.3,8282,8.06,72254.0,4.31,-31.23,-31.73,0,*4E
1488272666.51,8283,8.06,72232.0,4.33,-30.51,-31.01,0,*4C
1488272667.74,8284,8.06,72248.0,4.33,-30.77,-31.33,0,*4E
1488272668.98,8285,8.06,72232.8,4.33,-31.23,-31.73,0,*4B
1488272670.22,8286,8.0,72220.0,4.35,-31.01,-31.51,0,*4E
1488272671.47,8287,8.0,72228.0,4.35,-31.29,-31.85,0,*4C
1488272672.71,8288,8.06,72216.8,4.39,-31.11,-31.67,0,*48
1488272673.93,8289,8.0,72210.5,4.35,-31.29,-31.79,0,*41
1488272675.2,8290,8.0,72262.8,4.35,-31.61,-31.95,0,*47
1488272676.44,8291,8.0,72250.3,4.35,-30.73,-31.29,0,*43
1488272677.66,8292,8.06,72198.3,4.35,-32.39,-32.91,0,*4C
1488272678.88,8293,8.0,72180.5,4.35,-32.39,-33.03,0,*47
1488272680.1,8294,8.06,72202.3,4.35,-32.35,-32.91,0,*46
1488272681.32,8295,8.06,72252.3,4.33,-32.07,-32.57,0,*4A
1488272682.57,8296,8.0,72220.0,4.33,-32.07,-32.45,0,*4A
1488272683.82,8297,8.0,72218.5,4.33,-31.57,-32.19,0,*44
1488272685.07,8298,8.06,72244.8,4.33,-32.19,-32.75,0,*48
1488272686.3,8299,8.06,72246.5,4.33,-32.23,-32.75,0,*40
1488272687.5,8300,8.0,72248.5,4.33,-32.01,-32.57,0,*41
1488272688.74,8301,8.06,72226.8,4.31,-32.29,-32.91,0,*42
1488272689.99,8302,8.06,72230.0,4.31,-32.23,-32.75,0,*41
1488272691.22,8303,8.0,72214.0,4.29,-31.57,-32.23,0,*4A
1488272692.44,8304,8.06,72290.5,4.29,-31.73,-32.13,0,*48
1488272693.7,8305,8.0,72252.3,4.29,-31.57,-31.95,0,*42
1488272694.92,8306,8.0,72222.8,4.29,-32.29,-32.69,0,*4B
1488272696.13,8307,8.0,72192.3,4.29,-32.35,-32.97,0,*46
1488272697.36,8308,8.0,72198.8,4.29,-31.79,-32.19,0,*44
1488272698.58,8309,8.0,72166.0,4.29,-31.29,-31.73,0,*4F
1488272699.82,8310,8.06,72132.8,4.29,-31.91,-32.29,0,*48
1488272701.03,8311,8.0,72134.8,4.27,-33.27,-33.83,0,*49
1488272702.26,8312,8.0,72164.8,4.29,-32.45,-33.03,0,*49
1488272703.52,8313,8.06,72196.3,4.25,-31.85,-32.29,0,*42
1488272704.79,8314,8.0,72200.5,4.25,-31.11,-31.51,0,*44
1488272706.04,8315,8.0,72214.8,4.25,-30.89,-31.29,0,*4A
1488272707.28,8316,8.0,72216.3,4.25,-31.33,-31.85,0,*4F
1488272708.49,8317,8.0,72218.5,4.25,-31.05,-31.33,0,*46
1488272709.73,8318,8.06,72206.8,4.29,-31.11,-31.57,0,*42
1488272710.95,8319,8.0,72208.5,4.27,-31.11,-31.33,0,*4F
1488272712.15,8320,8.06,72224.5,4.29,-29.79,-30.23,0,*4C
1488272713.4,8321,8.0,72228.5,4.29,-30.17,-30.39,0,*46
1488272714.65,8322,8.0,72226.3,4.31,-30.01,-30.27,0,*44
1488272715.87,8323,8.0,72238.3,4.31,-29.45,-29.61,0,*47
1488272717.12,8324,8.0,72244.3,4.35,-29.35,-29.57,0,*46
1488272718.37,8325,8.0,72244.3,4.39,-30.95,-31.29,0,*49
1488272719.64,8326,8.0,72228.5,4.35,-30.89,-31.11,0,*40
1488272720.86,8327,8.0,72192.0,4.39,-29.83,-30.11,0,*4E
1488272722.08,8328,8.0,72194.5,4.41,-30.39,-30.67,0,*46
1488272723.3,8329,8.0,72198.3,4.41,-30.67,-30.95,0,*41
1488272724.51,8330,8.0,72196.8,4.41,-31.39,-31.79,0,*40
1488272725.76,8331,8.0,72196.0,4.41,-31.73,-31.95,0,*4D
1488272727.01,8332,8.0,72178.3,4.39,-31.85,-32.13,0,*45
1488272728.28,8333,8.0,72178.3,4.39,-31.85,-32.19,0,*4E
1488272729.5,8334,8.0,72186.5,4.35,-32.57,-33.03,0,*43
1488272730.75,8335,8.0,72184.0,4.35,-32.39,-32.85,0,*45
1488272731.99,8336,8.0,72162.5,4.35,-33.03,-33.43,0,*45
1488272733.24,8337,8.0,72154.5,4.31,-33.15,-33.49,0,*4D
1488272734.52,8338,8.0,72178.3,4.31,-31.85,-32.19,0,*4D
1488272735.71,8339,8.0,72164.8,4.33,-31.33,-31.67,0,*49
1488272736.96,8340,8.0,72144.0,4.33,-32.79,-33.31,0,*4B
1488272738.18,8341,8.0,72132.3,4.29,-33.89,-34.25,0,*4D
1488272739.39,8342,8.0,72178.5,4.27,-34.13,-34.53,0,*45
1488272740.64,8343,8.0,72202.3,4.27,-31.85,-32.19,0,*46
1488272741.88,8344,8.0,72210.3,4.27,-31.61,-31.95,0,*4C
1488272743.1,8345,8.0,72216.5,4.27,-31.61,-32.01,0,*43
1488272744.32,8346,8.0,72222.5,4.27,-31.11,-31.45,0,*44
1488272745.58,8347,8.0,72258.8,4.29,-31.23,-31.61,0,*4C
1488272746.8,8348,8.0,72268.5,4.27,-31.11,-31.45,0,*4A
1488272747.99,8349,8.0,72162.8,4.27,-32.13,-32.57,0,*4A
1488272749.23,8350,8.0,72196.3,4.27,-31.61,-31.85,0,*48
1488272750.45,8351,8.0,72142.3,4.27,-32.69,-33.09,0,*44
1488272751.67,8352,8.0,72180.8,4.27,-33.67,-34.01,0,*47
1488272752.91,8353,8.0,72136.3,4.25,-33.49,-33.83,0,*45
1488272754.11,8354,8.0,72118.5,4.23,-34.59,-35.01,0,*4E
1488272755.37,8355,8.0,72142.5,4.21,-34.71,-34.95,0,*4B
1488272756.61,8356,8.0,72148.5,4.17,-32.85,-33.15,0,*4F
1488272757.86,8357,8.0,72200.0,4.13,-31.85,-32.13,0,*4E
1488272759.13,8358,8.0,72188.0,4.17,-31.61,-31.91,0,*46
1488272760.41,8359,8.0,72196.0,4.17,-33.49,-33.89,0,*44
1488272761.65,8360,8.0,72216.8,4.13,-33.61,-33.95,0,*4D
1488272762.86,8361,8.0,72240.8,4.13,-31.67,-31.79,0,*48
1488272764.11,8362,8.0,72236.8,4.17,-31.29,-31.61,0,*4C
1488272765.38,8363,8.0,72254.5,4.17,-31.39,-31.57,0,*49
1488272766.63,8364,8.0,72238.8,4.13,-31.45,-31.61,0,*44
1488272767.91,8365,8.0,72234.3,4.17,-30.73,-30.89,0,*42
1488272769.18,8366,8.0,72260.5,4.17,-31.23,-31.57,0,*47
1488272770.42,8367,8.0,72266.5,4.19,-31.39,-31.57,0,*43
1488272771.66,8368,8.0,72244.5,4.17,-31.01,-31.23,0,*4A
1488272772.91,8369,8.0,72278.3,4.17,-30.23,-30.39,0,*40
1488272774.15,8370,8.0,72234.5,4.21,-30.67,-30.95,0,*4B
1488272775.35,8371,8.0,72148.0,4.19,-31.17,-31.29,0,*41
1488272776.59,8372,8.0,72162.3,4.19,-31.23,-31.39,0,*44
1488272777.84,8373,8.0,72192.3,4.21,-32.19,-32.35,0,*4B
1488272779.05,8374,8.0,72212.8,4.19,-32.97,-33.21,0,*45
1488272780.28,8375,8.0,72236.5,4.19,-31.79,-32.07,0,*42
1488272781.47,8376,8.0,72262.5,4.19,-32.13,-32.23,0,*48
1488272782.69,8377,8.0,72286.8,4.17,-32.13,-32.23,0,*47
1488272783.96,8378,8.0,72202.8,4.13,-31.61,-31.85,0,*45
1488272785.24,8379,8.0,72194.3,4.17,-31.95,-32.07,0,*42
1488272786.48,8380,8.0,72216.3,4.17,-32.23,-32.29,0,*46
1488272787.72,8381,8.0,72224.5,4.13,-33.27,-33.55,0,*4C
1488272788.95,8382,8.0,72232.5,4.13,-32.51,-32.69,0,*41
1488272790.22,8383,8.0,72242.0,4.13,-32.19,-32.19,0,*4B
1488272791.5,8384,8.0,72248.0,4.13,-31.11,-31.11,0,*4C
1488272792.74,8385,8.0,72256.0,4.13,-31.33,-31.51,0,*49
1488272793.96,8386,8.0,72244.5,4.13,-31.79,-32.01,0,*42
1488272795.19,8387,8.0,72236.0,4.13,-32.69,-33.03,0,*42
1488272796.43,8388,8.0,72244.0,4.13,-32.01,-32.29,0,*4A
1488272797.68,8389,8.0,72210.5,4.11,-31.57,-31.73,0,*45
1488272798.92,8390,8.0,72230.5,4.13,-31.51,-31.79,0,*43
1488272800.17,8391,8.0,72236.3,4.13,-31.33,-31.51,0,*4C
1488272801.42,8392,8.0,72228.8,4.13,-31.23,-31.29,0,*41
1488272802.7,8393,8.0,72204.3,4.13,-31.23,-31.51,0,*4F
1488272803.96,8394,8.0,72188.5,4.13,-32.19,-32.29,0,*4E
1488272805.21,8395,8.0,72192.8,4.13,-31.45,-31.51,0,*49
1488272806.49,8396,8.0,72178.3,4.17,-30.73,-30.73,0,*4B
1488272807.75,8397,8.0,72178.0,4.17,-30.83,-30.89,0,*40
1488272808.97,8398,8.0,72176.3,4.19,-31.17,-31.23,0,*4C
1488272810.22,8399,8.0,72188.8,4.19,-31.73,-31.91,0,*46
1488272811.47,8400,8.0,72170.8,4.17,-31.45,-31.61,0,*45
1488272812.74,8401,8.0,72202.5,4.17,-31.73,-31.91,0,*4E
1488272814.01,8402,8.0,72202.0,4.17,-30.51,-30.55,0,*45
1488272815.24,8403,8.0,72184.3,4.17,-30.83,-31.01,0,*4B
1488272816.51,8404,8.0,72204.0,4.17,-31.73,-31.91,0,*4B
1488272817.76,8405,8.0,72196.0,4.19,-31.73,-31.95,0,*40
1488272819.01,8406,8.0,72184.0,4.19,-31.95,-32.45,0,*45
1488272820.25,8407,8.0,72166.0,4.17,-33.15,-33.49,0,*4D
1488272821.49,8408,8.0,72190.5,4.17,-33.61,-33.95,0,*40
1488272822.76,8409,8.0,72226.3,4.13,-33.77,-34.01,0,*48
1488272824.01,8410,8.0,72278.5,4.09,-32.57,-32.97,0,*41
1488272825.29,8411,8.0,72252.5,4.09,-31.85,-32.07,0,*45
1488272826.53,8412,8.0,72262.0,4.09,-31.67,-31.91,0,*46
1488272827.72,8413,8.0,72170.5,4.11,-31.67,-32.01,0,*44
1488272829.0,8414,8.0,72178.0,4.09,-31.73,-31.91,0,*45
1488272830.25,8415,8.0,72208.5,4.09,-32.51,-32.75,0,*4E
1488272831.47,8416,8.0,72204.8,4.09,-32.57,-32.57,0,*4B
1488272832.71,8417,8.0,72158.5,4.09,-31.67,-31.85,0,*46
1488272833.94,8418,8.0,72186.3,4.11,-31.17,-31.51,0,*4E
1488272835.19,8419,8.0,72172.8,4.09,-32.07,-32.23,0,*42
1488272836.44,8420,8.0,72166.8,4.09,-32.07,-32.23,0,*48
1488272837.69,8421,8.0,72230.5,4.09,-32.07,-32.23,0,*49
1488272838.93,8422,8.0,72242.5,4.09,-31.33,-31.57,0,*4E
1488272840.21,8423,8.0,72252.0,4.09,-31.11,-31.11,0,*4D
1488272841.43,8424,8.0,72236.3,4.09,-31.01,-31.17,0,*4D
1488272842.65,8425,8.0,72230.0,4.11,-31.33,-31.57,0,*40
1488272843.87,8426,8.0,72248.8,4.09,-31.01,-31.17,0,*4F
1488272845.1,8427,8.0,72296.5,4.11,-30.77,-30.83,0,*4B
1488272846.38,8428,8.0,72260.5,4.13,-30.89,-30.89,0,*4D
1488272847.6,8429,8.0,72210.0,4.13,-31.45,-31.67,0,*4C
1488272848.84,8430,8.0,72140.0,4.17,-31.01,-31.23,0,*40
1488272850.06,8431,8.0,72184.8,4.13,-31.33,-31.67,0,*44
1488272851.31,8432,8.0,72200.3,4.13,-31.85,-32.13,0,*4A
1488272852.53,8433,8.0,72198.0,4.17,-31.45,-31.79,0,*4C
1488272853.78,8434,8.0,72180.8,4.13,-32.19,-32.69,0,*47
1488272855.06,8435,8.0,72206.0,4.13,-32.45,-32.75,0,*42
1488272856.3,8436,8.0,72196.0,4.13,-31.61,-32.01,0,*47
1488272857.55,8437,8.0,72186.5,4.11,-31.73,-31.91,0,*4D
1488272858.8,8438,8.0,72210.5,4.13,-31.85,-32.13,0,*40
1488272860.05,8439,8.0,72170.3,4.13,-31.11,-31.33,0,*4D
1488272861.29,8440,8.0,72136.8,4.13,-30.95,-31.05,0,*4B
1488272862.56,8441,8.0,72146.8,4.13,-31.51,-31.95,0,*4A
1488272863.81,8442,8.0,72160.0,4.13,-31.95,-32.13,0,*4C
1488272865.03,8443,8.0,72140.0,4.11,-32.51,-32.79,0,*48
1488272866.23,8444,8.0,72184.3,4.11,-32.57,-32.91,0,*4F
1488272867.49,8445,8.0,72120.0,4.11,-32.75,-33.27,0,*42
1488272868.71,8446,8.0,72190.0,4.11,-32.79,-33.15,0,*4C
1488272869.96,8447,8.0,72212.8,4.09,-32.51,-32.79,0,*45
1488272871.21,8448,8.0,72162.3,4.09,-31.91,-32.23,0,*4A
1488272872.43,8449,8.0,72196.5,4.09,-32.01,-32.23,0,*41
1488272873.66,8450,8.0,72182.5,4.09,-32.23,-32.51,0,*4C
1488272874.87,8451,8.0,72202.0,4.09,-32.35,-32.57,0,*4C
1488272876.09,8452,8.0,72174.3,4.07,-31.33,-31.61,0,*42
1488272877.31,8453,8.0,72170.3,4.07,-31.17,-31.57,0,*40
1488272878.56,8454,8.0,72188.5,4.09,-31.67,-32.07,0,*48
1488272879.81,8455,8.0,72188.5,4.09,-31.11,-31.33,0,*4C
1488272881.09,8456,8.0,72212.0,4.09,-31.85,-32.19,0,*49
1488272882.36,8457,8.0,72220.5,4.09,-31.85,-32.19,0,*48
1488272883.58,8458,8.0,72248.8,4.09,-31.01,-31.29,0,*4B
1488272884.83,8459,8.0,72224.3,4.09,-29.89,-30.11,0,*49
1488272886.03,8460,8.0,72240.0,4.11,-30.11,-30.45,0,*42
1488272887.25,8461,8.0,72242.8,4.11,-30.05,-30.33,0,*47
1488272888.53,8462,8.0,72220.0,4.17,-30.17,-30.51,0,*45
1488272889.77,8463,8.0,72242.5,4.17,-30.27,-30.55,0,*43
1488272891.02,8464,8.0,72248.0,4.17,-30.89,-31.29,0,*4A
1488272892.27,8465,8.0,72238.0,4.17,-30.11,-30.51,0,*44
1488272893.49,8466,8.0,72230.8,4.19,-30.73,-31.05,0,*4D
1488272894.73,8467,8.0,72244.3,4.21,-30.67,-30.95,0,*4A
1488272896.0,8468,8.0,72236.3,4.21,-30.61,-30.95,0,*43
1488272897.21,8469,8.0,72238.3,4.19,-31.39,-31.79,0,*46
1488272898.49,8470,8.0,72238.3,4.21,-31.11,-31.39,0,*4B
1488272899.7,8471,8.0,72240.8,4.21,-31.17,-31.67,0,*47
1488272900.98,8472,8.0,72238.0,4.21,-31.73,-32.07,0,*43
1488272902.25,8473,8.0,72268.8,4.21,-31.57,-31.85,0,*4D
1488272903.47,8474,8.0,72238.8,4.21,-30.83,-31.33,0,*4F
1488272904.71,8475,8.0,72220.5,4.21,-31.67,-32.07,0,*41
1488272905.96,8476,8.0,72202.0,4.21,-32.23,-32.79,0,*48
1488272907.2,8477,8.0,72200.0,4.21,-32.35,-32.79,0,*4E
1488272908.44,8478,8.0,72190.0,4.21,-32.35,-32.79,0,*41
1488272909.66,8479,8.0,72188.5,4.19,-32.07,-32.39,0,*4E
1488272910.85,8480,8.0,72242.0,4.19,-32.23,-32.57,0,*46
1488272912.09,8481,8.0,72190.8,4.19,-31.91,-32.29,0,*44
1488272913.3,8482,8.0,72202.0,4.19,-32.23,-32.45,0,*47
1488272914.5,8483,8.0,72174.5,4.19,-32.13,-32.39,0,*4E
1488272915.71,8484,7.94,72174.3,4.19,-31.79,-32.29,0,*47
1488272916.96,8485,7.94,72180.0,4.19,-31.57,-32.07,0,*46
1488272918.19,8486,8.0,72180.3,4.19,-32.07,-32.39,0,*4E
1488272919.46,8487,8.0,72206.0,4.17,-32.45,-32.85,0,*40
1488272920.71,8488,8.0,72226.5,4.17,-31.45,-31.91,0,*4A
1488272921.94,8489,8.0,72246.5,4.17,-31.05,-31.45,0,*46
1488272923.18,8490,8.0,72248.3,4.19,-30.51,-30.89,0,*41
1488272924.42,8491,7.94,72232.5,4.21,-30.61,-31.01,0,*49